Flag for U.S.A. Weather past 2 weeks in Dickinson, North Dakota, U.S.A.

Now
27 °F

Overcast.


Feels Like: 23 °F
Forecast: 19 / 40 °F
Wind: 3 mph from South

Location: Dickinson Municipal Airport

Current Time: Dec 20, 2014 at 3:32:26 AM

Latest Report: Dec 20, 2014 at 2:56 AM


Visibility: 10 mi

Pressure: 29.90 "Hg

Humidity: 81%

Dew point: 22 °F

Location of DickinsonLocation

Historic Weather in Dickinson — Graph

°F

Dickinson temperature yesterday

Maximum temperature yesterday: 44 °F (at 1:56 PM)
Minimum temperature yesterday: 22 °F (at 7:56 PM)
Average temperature yesterday: 32 °F

Past Weeks' High & Low Weather Summary

 TemperatureHumidityPressure
High60 °F (Dec 12, 11:56 AM)92% (Dec 14, 5:56 AM)30.48 "Hg (Dec 14, 5:56 AM)
Low15 °F (Dec 17, 6:56 AM)33% (Dec 12, 11:56 AM)29.63 "Hg (Dec 13, 1:56 PM)
Average30 °F76%30.08 "Hg
* Reported Dec 5 1:56 AM — Dec 20 1:56 AM, Dickinson, Weather by CustomWeather, © 2014

Note: Actual official high and low records may vary slightly from our data, if they occured in-between our weather recording intervals... More about our weather records

Advertising

Dickinson weather history for previous 24 hours

 ConditionsComfort  
Time TempWeatherWind HumidityBarometerVisibility
1:56 AM
Dec 20
25 °FPassing clouds.3 mph75%29.91 "Hg10 mi
12:56 AM23 °FClear.7 mph78%29.92 "Hg10 mi
11:56 PM
Dec 19
22 °FClear.3 mph82%29.94 "Hg10 mi
10:56 PM22 °FClear.3 mph78%29.96 "Hg10 mi
9:56 PM25 °FClear.3 mph78%29.96 "Hg10 mi
8:56 PM24 °FClear.6 mph81%29.96 "Hg10 mi
7:56 PM22 °FClear.6 mph85%29.97 "Hg10 mi
6:56 PM28 °FClear.5 mph81%29.96 "Hg10 mi
5:56 PM30 °FClear.3 mph75%29.96 "Hg10 mi
4:56 PM31 °FClear.No wind73%29.95 "Hg10 mi
3:56 PM38 °FClear.3 mph63%29.94 "Hg10 mi
2:56 PM43 °FSunny.6 mph56%29.93 "Hg10 mi
1:56 PM44 °FSunny.9 mph53%29.92 "Hg10 mi
12:56 PM43 °FSunny.10 mph58%29.92 "Hg10 mi
11:56 AM42 °FSunny.8 mph60%29.94 "Hg10 mi
10:56 AM38 °FSunny.9 mph65%29.96 "Hg10 mi
9:56 AM35 °FSunny.9 mph70%29.99 "Hg10 mi
8:56 AM31 °FSunny.8 mph76%29.99 "Hg10 mi
7:56 AM30 °FSunny.8 mph75%29.99 "Hg10 mi
6:56 AM29 °FSunny.No wind75%30.00 "Hg10 mi
5:56 AM30 °FPassing clouds.6 mph75%29.99 "Hg10 mi
4:56 AM32 °FPassing clouds.6 mph73%29.98 "Hg10 mi
3:56 AM32 °FOvercast.7 mph75%29.97 "Hg10 mi
Weather by CustomWeather, © 2014

See weather overviewHow to use our weather pages